Starlink 3894

operational
NORAD ID: 52499 Int'l Des: 2022-049 Owner: SPXS Country: US Constellation: starlink
LEOCIRCULAR

About Starlink 3894

Description loading...

Live Position

Loading 3D Globe...

Upcoming Passes

Altitude History

Altitude vs Time

uPlot chart will show altitude changes over time

Two-Line Element Set

1 52499U 22049BA 25260.79406437 .00000010 00000-0 18717-4 0 9990
2 52499 53.2162 105.2797 0001288 90.1263 269.9876 15.08834213186299
Epoch: Sep 17, 2025 • Age: 27 hours

Current Status

Altitude 557.5 km
Velocity 7.58 km/s
Sub-Earth Point -48.98°S, 76.87°E
Launch Date May 6, 2022
Age 3.3 years
Type internet

Technical Details

Classification Payload
Mass 297.00 kg
Dry Mass 220.00 kg
Total Mass 297.00 kg
Length 0.20 m
Diameter 2.80 m
Span 9.00 m
Shape Box + pan
Manufacturer SPXS
Bus Type Starlink
Phase Status In Orbit
Owner/State SPXS/US

Large Constellations

Loading constellations...